METEOR 2-5 DEB

Satellite information

Favourite Embed

Satellite Type and Status

DEBRISIN ORBIT

Key statistics

Satellite METEOR 2-5 DEB at a glance.

Uptime

16793

Days in orbit

Revolutions

≈ 14.4

Per day

Orbit

LEO

Low Earth Orbit

Inclination

81.2

Latest

Satellite identification and parameters

Extended collection of information and parameters for METEOR 2-5 DEB.

Object identification

Identified? True

Debris? True

Object name: METEOR 2-5 DEB

International designator: 1979-095BC

Object number (NORAD): 36911

Object ID (CCSDS): 36911

Country: COMMONWEALTH OF INDEPENDENT STATES (CIS)

Current information (Y/N): Y

RCS size: SMALL

Orbital parameters

Period: 100.163 minutes

Inclination: 81.1814 deg

SMA: 7144.377 km

Apoapsis: 774.081 km

Periapsis: 758.403 km

RAAN: 359.4404 deg

Eccentricy: 0.00109718

Argument of periapsis: 34.7722 deg

Mean anomaly: 325.4179 deg

Mean motion: 14.37660119 rev/day

Mean motion (dot): 0.00011107 rev/day2

B* drag term: 0.003688112 1/REarth

Two-line elements (TLE)

Creation date: Oct. 19, 2025, 2:20 a.m.

Reference frame: TEME

Reference center: EARTH

Epoch: Oct. 18, 2025, 10:52 a.m. UTC

TLE line 0: 0 METEOR 2-5 DEB

TLE line 1: 1 36911U 79095BC 25291.45340909 .00011107 00000-0 36881-2 0 9991

TLE line 2: 2 36911 81.1814 359.4404 0010972 34.7722 325.4179 14.37660119635999

Live tracking on map

Real-time ground track for satellite METEOR 2-5 DEB.

In-orbit conjunctions

A list of the most updated potential collisions computed for object METEOR 2-5 DEB.

Target Orbit TCA Probability of collision Miss distance Type
FENGYUN 1C DEB SSO 2025-07-22 12:39:11 0.0002618039 211.0 (m) DEBRIS
NOAA 16 DEB SSO 2025-01-01 09:43:53 0.0003458989 90.0 (m) DEBRIS
COSMOS 2251 DEB LEO 2024-11-16 02:17:27 0.0001338975 766.0 (m) DEBRIS

Associated space launch

Second generation soviet meteorological satellite

METEOR 2-5 DEB was lifted into orbit during the mission ‘Vostok 8A92M | Meteor-2 5’, on board a Vostok 8A92M space rocket.

The launch took place on Oct. 31, 1979, 9:25 a.m. from 43/4 (43R).

For more information about the launch, click the button.

Launch to space Vostok 8A92M | Meteor-2 5
Vostok 8A92M | Meteor-2 5

Agency: N/A

Status: Launch Successful

Launch date: Oct. 31, 1979, 9:25 a.m. UTC

Rocket: Vostok 8A92M

Launch pad: 43/4 (43R)

Location: Plesetsk Cosmodrome, Russian Federation

...

Latest news about this satellite

There are no fresh news available about this satellite. Check back as we update our databases every day.


Newsletter sign-up

Weekly statistics, charts and insights to help you stay on top of the space industry.